Location: Bannatyne
(13.0833°N, 59.5333°W)
Time: 06:17:25
(UTC+00:00)

deb Explorer IX - Pass Details

Date: 31 January 2020
Orbit: 549 x 1099 km, 38.8° (Epoch: 17 February)

Event Time Altitude Azimuth Distance (km) Brightness Sun altitude
Rises 20:23:12 0° 229° (SW) 2,937 ? 20.8°
Reaches altitude 10° 20:25:23 10° 229° (SW) 2,096 ? 20.4°
Maximum altitude 20:30:17 85° 141° (SE) 754 ? 19.3°
Drops below altitude 10° 20:36:05 10° 52° (NE) 2,466 ? 18.0°
Sets 20:38:50 0° 52° (NE) 3,498 ? 17.4°
